OAL929 HTDA-HAAB

Flight info

Callsign OAL929
Flight time 2h 21m
Altitude 37000
Route UVUKO UL431 MOV UN301 ALEMU UT129 IMKIT
Aircraft B738/M-V/N

Departure

Time 2026-05-06 08:47
Airport Julius Nyerere International Airport (HTDA)

Arrival

Time 2026-05-06 11:08
Airport Addis Ababa Bole International Airport (HAAB)
Time Latitude Longitude Altitude Speed Heading
2026-05-06 08:35 -6.86104 39.21535 174 ft 0 kts 44°
2026-05-06 08:44 -6.86101 39.21558 174 ft 15 kts 91°
2026-05-06 08:45 -6.86167 39.21664 173 ft 18 kts 135°
2026-05-06 08:45 -6.86257 39.21752 171 ft 16 kts 136°
2026-05-06 08:45 -6.86261 39.21756 171 ft 0 kts 136°
2026-05-06 08:46 -6.86280 39.21761 171 ft 12 kts 180°
2026-05-06 08:46 -6.86545 39.21526 174 ft 93 kts 225°
2026-05-06 08:46 -6.87188 39.20885 182 ft 165 kts 225°
2026-05-06 08:47 -6.88041 39.20043 955 ft 174 kts 223°
2026-05-06 08:47 -6.89084 39.19433 1846 ft 174 kts 181°
2026-05-06 08:47 -6.90274 39.19775 2442 ft 195 kts 140°
2026-05-06 08:47 -6.90977 39.21007 2629 ft 221 kts 98°
2026-05-06 08:48 -6.90645 39.22592 2814 ft 252 kts 60°
2026-05-06 08:48 -6.89242 39.23761 3300 ft 273 kts 21°
2026-05-06 08:48 -6.87381 39.23892 4119 ft 278 kts 347°
2026-05-06 08:48 -6.85639 39.23044 4909 ft 281 kts 328°
2026-05-06 08:49 -6.83801 39.22380 5621 ft 284 kts 359°
2026-05-06 08:49 -6.81825 39.22624 6448 ft 284 kts 12°
2026-05-06 08:49 -6.79863 39.22987 7135 ft 289 kts 11°
2026-05-06 08:49 -6.77870 39.23321 7888 ft 291 kts 10°
2026-05-06 08:50 -6.75870 39.23633 8671 ft 291 kts
2026-05-06 08:50 -6.73860 39.23930 9449 ft 293 kts
2026-05-06 08:50 -6.71836 39.24217 10186 ft 295 kts
2026-05-06 08:50 -6.69778 39.24502 10514 ft 314 kts
2026-05-06 08:51 -6.67535 39.24805 10661 ft 336 kts
2026-05-06 08:51 -6.65150 39.25122 10796 ft 356 kts
2026-05-06 08:51 -6.62601 39.25457 10997 ft 372 kts
2026-05-06 08:51 -6.60014 39.25793 11480 ft 377 kts
2026-05-06 08:52 -6.57410 39.26129 12092 ft 378 kts
2026-05-06 08:52 -6.54795 39.26466 12687 ft 380 kts
2026-05-06 08:52 -6.52194 39.26801 13217 ft 383 kts
2026-05-06 08:52 -6.49506 39.27146 13758 ft 386 kts
2026-05-06 08:53 -6.46867 39.27485 14222 ft 389 kts
2026-05-06 08:53 -6.44140 39.27836 14717 ft 391 kts
2026-05-06 08:53 -6.41432 39.28184 15179 ft 394 kts
2026-05-06 08:53 -6.38707 39.28534 15635 ft 396 kts
2026-05-06 08:54 -6.36893 39.28767 15929 ft 398 kts
2026-05-06 08:54 -6.34137 39.29121 16397 ft 400 kts
2026-05-06 08:54 -6.30464 39.29592 16999 ft 403 kts
2026-05-06 08:54 -6.27674 39.29950 17426 ft 406 kts
2026-05-06 08:55 -6.24858 39.30312 17834 ft 409 kts
2026-05-06 08:55 -6.22026 39.30675 18241 ft 412 kts
2026-05-06 08:55 -6.20105 39.30922 18489 ft 413 kts
2026-05-06 08:55 -6.17240 39.31290 18843 ft 416 kts
2026-05-06 08:56 -6.14362 39.31659 19173 ft 419 kts
2026-05-06 08:56 -6.11461 39.32031 19513 ft 421 kts
2026-05-06 08:56 -6.08543 39.32405 19839 ft 424 kts
2026-05-06 08:56 -6.05610 39.32781 20161 ft 426 kts
2026-05-06 08:57 -6.02659 39.33159 20481 ft 428 kts
2026-05-06 08:57 -5.99699 39.33538 20798 ft 431 kts
2026-05-06 08:57 -5.96714 39.33921 21102 ft 433 kts
2026-05-06 08:57 -5.93717 39.34305 21402 ft 435 kts
2026-05-06 08:58 -5.90705 39.34691 21700 ft 438 kts
2026-05-06 08:58 -5.87675 39.35079 21995 ft 440 kts
2026-05-06 08:58 -5.84638 39.35468 22284 ft 442 kts
2026-05-06 08:58 -5.81580 39.35859 22555 ft 444 kts
2026-05-06 08:59 -5.78507 39.36253 22831 ft 446 kts
2026-05-06 08:59 -5.75420 39.36648 23094 ft 448 kts
2026-05-06 08:59 -5.72321 39.37045 23341 ft 450 kts
2026-05-06 08:59 -5.69207 39.37444 23592 ft 452 kts
2026-05-06 09:00 -5.66077 39.37844 23800 ft 454 kts
2026-05-06 09:00 -5.62937 39.38246 24013 ft 455 kts
2026-05-06 09:00 -5.59796 39.38647 24239 ft 456 kts
2026-05-06 09:00 -5.56649 39.39050 24449 ft 457 kts
2026-05-06 09:01 -5.53491 39.39453 24652 ft 458 kts
2026-05-06 09:01 -5.50322 39.39859 24843 ft 460 kts
2026-05-06 09:01 -5.47143 39.40266 25037 ft 461 kts
2026-05-06 09:01 -5.43956 39.40673 25222 ft 462 kts
2026-05-06 09:02 -5.40759 39.41082 25414 ft 464 kts
2026-05-06 09:02 -5.37558 39.41491 25599 ft 465 kts
2026-05-06 09:02 -5.34344 39.41902 25781 ft 466 kts
2026-05-06 09:02 -5.31123 39.42314 25976 ft 467 kts
2026-05-06 09:03 -5.27898 39.42726 26144 ft 468 kts
2026-05-06 09:03 -5.24658 39.43140 26319 ft 469 kts
2026-05-06 09:03 -5.21415 39.43555 26486 ft 471 kts
2026-05-06 09:03 -5.18162 39.43970 26655 ft 472 kts
2026-05-06 09:04 -5.14904 39.44386 26809 ft 473 kts
2026-05-06 09:04 -5.11637 39.44804 26969 ft 474 kts
2026-05-06 09:04 -5.08361 39.45222 27118 ft 475 kts
2026-05-06 09:04 -5.05074 39.45642 27270 ft 476 kts
2026-05-06 09:05 -5.01784 39.46063 27417 ft 477 kts
2026-05-06 09:05 -4.98482 39.46484 27561 ft 479 kts
2026-05-06 09:05 -4.95177 39.46906 27691 ft 480 kts
2026-05-06 09:05 -4.91860 39.47329 27836 ft 481 kts
2026-05-06 09:06 -4.88543 39.47753 27989 ft 481 kts
2026-05-06 09:06 -4.85216 39.48177 28133 ft 482 kts
2026-05-06 09:06 -4.81885 39.48603 28280 ft 483 kts
2026-05-06 09:06 -4.78555 39.49028 28488 ft 482 kts
2026-05-06 09:07 -4.75235 39.49451 28717 ft 481 kts
2026-05-06 09:07 -4.71911 39.49876 28900 ft 481 kts
2026-05-06 09:07 -4.68593 39.50334 29067 ft 481 kts 11°
2026-05-06 09:07 -4.65297 39.50906 29243 ft 481 kts 12°
2026-05-06 09:08 -4.62013 39.51538 29478 ft 480 kts 12°
2026-05-06 09:08 -4.58739 39.52188 29722 ft 478 kts 13°
2026-05-06 09:08 -4.55477 39.52834 29948 ft 478 kts 12°
2026-05-06 09:08 -4.52210 39.53471 30107 ft 479 kts 12°
2026-05-06 09:09 -4.48938 39.54098 30255 ft 479 kts 12°
2026-05-06 09:09 -4.45674 39.54716 30462 ft 478 kts 12°
2026-05-06 09:09 -4.42392 39.55333 30737 ft 475 kts 12°
2026-05-06 09:09 -4.39150 39.55942 31013 ft 473 kts 12°
2026-05-06 09:10 -4.35919 39.56548 31250 ft 472 kts 12°
2026-05-06 09:10 -4.32693 39.57154 31428 ft 472 kts 12°
2026-05-06 09:10 -4.29461 39.57762 31605 ft 472 kts 12°
2026-05-06 09:10 -4.26231 39.58369 31842 ft 471 kts 12°
2026-05-06 09:11 -4.23019 39.58973 32136 ft 469 kts 12°
2026-05-06 09:11 -4.19823 39.59574 32445 ft 466 kts 12°
2026-05-06 09:11 -4.16639 39.60173 32705 ft 465 kts 12°
2026-05-06 09:11 -4.13461 39.60771 32884 ft 466 kts 12°
2026-05-06 09:12 -4.10270 39.61370 33036 ft 467 kts 12°
2026-05-06 09:12 -4.07080 39.61971 33276 ft 466 kts 12°
2026-05-06 09:12 -4.03902 39.62568 33588 ft 463 kts 12°
2026-05-06 09:12 -4.00747 39.63162 33910 ft 461 kts 12°
2026-05-06 09:13 -3.97599 39.63753 34099 ft 461 kts 12°
2026-05-06 09:13 -3.94435 39.64331 34241 ft 462 kts
2026-05-06 09:13 -3.91235 39.64683 34364 ft 464 kts
2026-05-06 09:13 -3.88026 39.64915 34636 ft 461 kts
2026-05-06 09:14 -3.84834 39.65116 34943 ft 458 kts
2026-05-06 09:14 -3.81655 39.65316 35144 ft 458 kts
2026-05-06 09:14 -3.78473 39.65526 35253 ft 459 kts
2026-05-06 09:14 -3.75279 39.65750 35377 ft 460 kts
2026-05-06 09:15 -3.72086 39.65982 35599 ft 459 kts
2026-05-06 09:15 -3.68913 39.66218 35888 ft 456 kts
2026-05-06 09:15 -3.65759 39.66454 36126 ft 454 kts
2026-05-06 09:15 -3.62605 39.66692 36248 ft 455 kts
2026-05-06 09:16 -3.59443 39.66931 36326 ft 457 kts
2026-05-06 09:16 -3.56272 39.67171 36505 ft 456 kts
2026-05-06 09:16 -3.53253 39.67399 36765 ft 453 kts
2026-05-06 09:16 -3.50109 39.67636 36975 ft 452 kts
2026-05-06 09:17 -3.46942 39.67875 36875 ft 457 kts
2026-05-06 09:17 -3.40636 39.68350 36911 ft 455 kts
2026-05-06 09:18 -3.34353 39.68820 36921 ft 453 kts
2026-05-06 09:18 -3.28061 39.69293 36946 ft 451 kts
2026-05-06 09:19 -3.21802 39.69764 36952 ft 450 kts
2026-05-06 09:19 -3.15586 39.70231 36943 ft 449 kts
2026-05-06 09:20 -3.09361 39.70700 36924 ft 449 kts
2026-05-06 09:20 -3.03103 39.71171 36912 ft 450 kts
2026-05-06 09:21 -2.96853 39.71641 36919 ft 451 kts
2026-05-06 09:21 -2.90594 39.72111 36941 ft 451 kts
2026-05-06 09:22 -2.84312 39.72584 36940 ft 452 kts
2026-05-06 09:22 -2.78017 39.73056 36917 ft 454 kts
2026-05-06 09:23 -2.71728 39.73528 36918 ft 455 kts
2026-05-06 09:23 -2.65401 39.74003 36940 ft 455 kts
2026-05-06 09:24 -2.59050 39.74473 36939 ft 456 kts
2026-05-06 09:24 -2.52712 39.74912 36910 ft 457 kts
2026-05-06 09:25 -2.46390 39.75347 36918 ft 457 kts
2026-05-06 09:25 -2.40072 39.75784 36939 ft 456 kts
2026-05-06 09:26 -2.33726 39.76225 36928 ft 457 kts
2026-05-06 09:26 -2.27382 39.76667 36909 ft 457 kts
2026-05-06 09:27 -2.21032 39.77109 36910 ft 458 kts
2026-05-06 09:27 -2.14686 39.77551 36936 ft 457 kts
2026-05-06 09:28 -2.08329 39.77993 36919 ft 458 kts
2026-05-06 09:28 -2.01931 39.78438 36907 ft 458 kts
2026-05-06 09:29 -1.95571 39.78881 36931 ft 458 kts
2026-05-06 09:29 -1.89199 39.79324 36917 ft 459 kts
2026-05-06 09:30 -1.82828 39.79767 36911 ft 459 kts
2026-05-06 09:30 -1.76448 39.80209 36925 ft 460 kts
2026-05-06 09:31 -1.70057 39.80629 36914 ft 461 kts
2026-05-06 09:31 -1.63654 39.81045 36910 ft 461 kts
2026-05-06 09:32 -1.58328 39.81393 36927 ft 462 kts
2026-05-06 09:32 -1.50825 39.81885 36912 ft 463 kts
2026-05-06 09:33 -1.45485 39.82235 36926 ft 463 kts
2026-05-06 09:33 -1.39049 39.82658 36919 ft 464 kts
2026-05-06 09:34 -1.32606 39.83081 36917 ft 464 kts
2026-05-06 09:34 -1.26162 39.83503 36923 ft 464 kts
2026-05-06 09:35 -1.19708 39.83927 36918 ft 465 kts
2026-05-06 09:35 -1.13248 39.84351 36919 ft 465 kts
2026-05-06 09:36 -1.06790 39.84774 36924 ft 465 kts
2026-05-06 09:36 -1.00326 39.85199 36914 ft 465 kts
2026-05-06 09:37 -0.93864 39.85622 36922 ft 465 kts
2026-05-06 09:37 -0.87361 39.86049 36917 ft 465 kts
2026-05-06 09:38 -0.80941 39.86470 36905 ft 465 kts
2026-05-06 09:38 -0.74437 39.86897 36916 ft 465 kts
2026-05-06 09:39 -0.67982 39.87321 36911 ft 465 kts
2026-05-06 09:39 -0.61529 39.87744 36906 ft 465 kts
2026-05-06 09:40 -0.55076 39.88167 36918 ft 465 kts
2026-05-06 09:40 -0.45394 39.88802 36905 ft 465 kts
2026-05-06 09:41 -0.38942 39.89226 36914 ft 465 kts
2026-05-06 09:41 -0.32487 39.89649 36907 ft 465 kts
2026-05-06 09:42 -0.26037 39.90168 36907 ft 465 kts
2026-05-06 09:42 -0.19590 39.90769 36913 ft 465 kts
2026-05-06 09:43 -0.13133 39.91367 36904 ft 466 kts
2026-05-06 09:43 -0.06671 39.91951 36899 ft 467 kts
2026-05-06 09:44 -0.00201 39.92530 36911 ft 467 kts
2026-05-06 09:44 0.06199 39.93101 36903 ft 468 kts
2026-05-06 09:45 0.12705 39.93682 36904 ft 468 kts
2026-05-06 09:45 0.19191 39.94262 36908 ft 469 kts
2026-05-06 09:46 0.25673 39.94842 36899 ft 469 kts
2026-05-06 09:46 0.32181 39.95424 36901 ft 469 kts
2026-05-06 09:47 0.38672 39.96005 36904 ft 469 kts
2026-05-06 09:47 0.45177 39.96587 36899 ft 469 kts
2026-05-06 09:48 0.51708 39.97171 36907 ft 468 kts
2026-05-06 09:48 0.58154 39.97747 36896 ft 468 kts
2026-05-06 09:49 0.64664 39.98330 36898 ft 467 kts
2026-05-06 09:49 0.71117 39.98907 36904 ft 466 kts
2026-05-06 09:50 0.77557 39.99483 36901 ft 465 kts
2026-05-06 09:50 0.83997 40.00059 36903 ft 464 kts
2026-05-06 09:51 0.90424 40.00634 36905 ft 463 kts
2026-05-06 09:51 0.96829 40.01207 36897 ft 463 kts
2026-05-06 09:52 1.03236 40.01783 36906 ft 462 kts
2026-05-06 09:52 1.09641 40.02363 36910 ft 461 kts
2026-05-06 09:53 1.16018 40.02939 36903 ft 461 kts
2026-05-06 09:53 1.22449 40.03520 36911 ft 461 kts
2026-05-06 09:54 1.28849 40.04098 36909 ft 462 kts
2026-05-06 09:54 1.35255 40.04677 36904 ft 462 kts
2026-05-06 09:55 1.41665 40.05256 36915 ft 462 kts
2026-05-06 09:55 1.48081 40.05836 36913 ft 463 kts
2026-05-06 09:56 1.54510 40.06417 36912 ft 464 kts
2026-05-06 09:56 1.60940 40.06998 36917 ft 464 kts
2026-05-06 09:57 1.67380 40.07580 36906 ft 464 kts
2026-05-06 09:57 1.73806 40.08117 36902 ft 465 kts
2026-05-06 09:58 1.80219 40.07363 37060 ft 460 kts 349°
2026-05-06 09:58 1.83364 40.06756 36924 ft 464 kts 349°
2026-05-06 09:58 1.86531 40.06157 36935 ft 463 kts 349°
2026-05-06 09:59 1.92872 40.04997 36904 ft 464 kts 349°
2026-05-06 09:59 1.99231 40.03861 36897 ft 464 kts 350°
2026-05-06 10:00 2.05568 40.02735 36905 ft 464 kts 350°
2026-05-06 10:00 2.11925 40.01603 36915 ft 464 kts 350°
2026-05-06 10:01 2.18282 40.00470 36927 ft 464 kts 350°
2026-05-06 10:01 2.24621 39.99340 36939 ft 463 kts 350°
2026-05-06 10:02 2.30973 39.98207 36943 ft 463 kts 350°
2026-05-06 10:02 2.37328 39.97074 36930 ft 464 kts 350°
2026-05-06 10:03 2.43669 39.95943 36942 ft 464 kts 349°
2026-05-06 10:03 2.50054 39.94803 36943 ft 464 kts 349°
2026-05-06 10:04 2.56410 39.93670 36932 ft 464 kts 349°
2026-05-06 10:04 2.62748 39.92506 36949 ft 463 kts 349°
2026-05-06 10:05 2.69086 39.91301 36943 ft 463 kts 349°
2026-05-06 10:05 2.75422 39.90097 36943 ft 463 kts 349°
2026-05-06 10:06 2.81754 39.88900 36947 ft 463 kts 349°
2026-05-06 10:06 2.88087 39.87705 36938 ft 463 kts 349°
2026-05-06 10:07 2.94426 39.86509 36952 ft 463 kts 349°
2026-05-06 10:07 3.00755 39.85314 36947 ft 463 kts 349°
2026-05-06 10:08 3.07085 39.84120 36944 ft 463 kts 349°
2026-05-06 10:08 3.13419 39.82924 36950 ft 463 kts 349°
2026-05-06 10:09 3.19746 39.81730 36949 ft 463 kts 349°
2026-05-06 10:09 3.26069 39.80536 36945 ft 463 kts 349°
2026-05-06 10:10 3.31327 39.79543 36955 ft 463 kts 349°
2026-05-06 10:10 3.37656 39.78348 36958 ft 463 kts 349°
2026-05-06 10:11 3.44029 39.77144 36951 ft 463 kts 349°
2026-05-06 10:11 3.50343 39.75951 36957 ft 463 kts 349°
2026-05-06 10:12 3.56685 39.74753 36955 ft 462 kts 349°
2026-05-06 10:12 3.63009 39.73558 36951 ft 462 kts 349°
2026-05-06 10:13 3.69276 39.72374 36953 ft 461 kts 349°
2026-05-06 10:13 3.75616 39.71175 36952 ft 461 kts 349°
2026-05-06 10:14 3.81908 39.69985 36945 ft 461 kts 349°
2026-05-06 10:14 3.88190 39.68798 36948 ft 460 kts 349°
2026-05-06 10:15 3.94477 39.67608 36947 ft 459 kts 349°
2026-05-06 10:15 4.00764 39.66420 36930 ft 459 kts 349°
2026-05-06 10:16 4.07057 39.65330 36942 ft 458 kts 351°
2026-05-06 10:16 4.13346 39.64297 36940 ft 458 kts 351°
2026-05-06 10:17 4.19635 39.63257 36924 ft 458 kts 351°
2026-05-06 10:17 4.25911 39.62208 36938 ft 457 kts 351°
2026-05-06 10:18 4.32181 39.61154 36924 ft 457 kts 351°
2026-05-06 10:18 4.38448 39.60101 36917 ft 457 kts 351°
2026-05-06 10:19 4.44706 39.59049 36927 ft 456 kts 351°
2026-05-06 10:19 4.50997 39.57991 36911 ft 457 kts 351°
2026-05-06 10:20 4.57287 39.56934 36912 ft 457 kts 351°
2026-05-06 10:20 4.63514 39.55887 36914 ft 457 kts 351°
2026-05-06 10:21 4.69838 39.54823 36907 ft 458 kts 351°
2026-05-06 10:21 4.76118 39.53766 36911 ft 458 kts 351°
2026-05-06 10:22 4.82407 39.52709 36923 ft 458 kts 351°
2026-05-06 10:22 4.88652 39.51658 36909 ft 459 kts 351°
2026-05-06 10:23 4.94989 39.50591 36925 ft 459 kts 351°
2026-05-06 10:23 5.01250 39.49537 36916 ft 459 kts 351°
2026-05-06 10:24 5.07555 39.48476 36921 ft 459 kts 351°
2026-05-06 10:24 5.13857 39.47414 36935 ft 459 kts 351°
2026-05-06 10:25 5.20157 39.46353 36918 ft 459 kts 351°
2026-05-06 10:25 5.26446 39.45293 36944 ft 458 kts 351°
2026-05-06 10:26 5.32737 39.44233 36932 ft 458 kts 351°
2026-05-06 10:26 5.39013 39.43175 36950 ft 457 kts 351°
2026-05-06 10:27 5.45283 39.42118 36939 ft 457 kts 351°
2026-05-06 10:27 5.51548 39.41062 36949 ft 456 kts 351°
2026-05-06 10:28 5.57809 39.40006 36938 ft 456 kts 351°
2026-05-06 10:28 5.64062 39.38951 36954 ft 456 kts 351°
2026-05-06 10:29 5.70208 39.37406 36982 ft 455 kts 342°
2026-05-06 10:29 5.76198 39.35291 36929 ft 457 kts 341°
2026-05-06 10:30 5.82189 39.33159 36930 ft 458 kts 341°
2026-05-06 10:30 5.88211 39.31100 36939 ft 458 kts 342°
2026-05-06 10:31 5.94248 39.29081 36953 ft 458 kts 342°
2026-05-06 10:31 6.00296 39.27067 36972 ft 458 kts 342°
2026-05-06 10:32 6.06352 39.25049 36982 ft 459 kts 342°
2026-05-06 10:32 6.12420 39.23026 36979 ft 459 kts 342°
2026-05-06 10:33 6.18494 39.20999 36967 ft 461 kts 342°
2026-05-06 10:33 6.24578 39.18968 36976 ft 461 kts 342°
2026-05-06 10:34 6.30664 39.16935 36997 ft 461 kts 342°
2026-05-06 10:34 6.36763 39.14898 36986 ft 462 kts 342°
2026-05-06 10:35 6.42862 39.12860 37005 ft 462 kts 342°
2026-05-06 10:35 6.48960 39.10823 37024 ft 462 kts 342°
2026-05-06 10:36 6.55058 39.08784 37010 ft 462 kts 342°
2026-05-06 10:36 6.61141 39.06750 37034 ft 461 kts 342°
2026-05-06 10:37 6.67224 39.04716 37021 ft 460 kts 342°
2026-05-06 10:37 6.73300 39.02683 37021 ft 460 kts 341°
2026-05-06 10:38 6.79374 39.00651 37028 ft 460 kts 341°
2026-05-06 10:38 6.85446 38.98619 37016 ft 460 kts 341°
2026-05-06 10:39 6.91520 38.96585 37018 ft 460 kts 341°
2026-05-06 10:39 6.97590 38.94552 37016 ft 460 kts 341°
2026-05-06 10:40 7.03656 38.92520 37005 ft 460 kts 341°
2026-05-06 10:40 7.09735 38.90484 37008 ft 460 kts 341°
2026-05-06 10:41 7.15804 38.88449 37002 ft 460 kts 341°
2026-05-06 10:41 7.21878 38.86413 36995 ft 460 kts 341°
2026-05-06 10:42 7.27962 38.84372 36991 ft 461 kts 341°
2026-05-06 10:42 7.34044 38.82332 36983 ft 461 kts 341°
2026-05-06 10:43 7.40129 38.80291 36958 ft 461 kts 341°
2026-05-06 10:44 7.49259 38.77226 36951 ft 461 kts 341°
2026-05-06 10:44 7.55345 38.75182 36929 ft 461 kts 341°
2026-05-06 10:45 7.61422 38.73141 36940 ft 460 kts 340°
2026-05-06 10:45 7.67493 38.71101 36912 ft 460 kts 340°
2026-05-06 10:46 7.73558 38.69063 36917 ft 459 kts 340°
2026-05-06 10:46 7.79617 38.67025 36890 ft 459 kts 340°
2026-05-06 10:47 7.85679 38.64986 36912 ft 459 kts 340°
2026-05-06 10:47 7.91744 38.62945 36904 ft 460 kts 340°
2026-05-06 10:48 7.96825 38.61236 36914 ft 459 kts 340°
2026-05-06 10:48 8.00908 38.60082 36572 ft 467 kts 353°
2026-05-06 10:48 8.03113 38.60069 36120 ft 471 kts
2026-05-06 10:48 8.06276 38.60792 35670 ft 466 kts 15°
2026-05-06 10:49 8.09408 38.61759 34931 ft 471 kts 17°
2026-05-06 10:49 8.12515 38.62771 34183 ft 473 kts 17°
2026-05-06 10:49 8.15657 38.63798 33597 ft 471 kts 17°
2026-05-06 10:49 8.18794 38.64810 32605 ft 477 kts 17°
2026-05-06 10:50 8.21939 38.65805 32100 ft 471 kts 17°
2026-05-06 10:50 8.25103 38.66791 31209 ft 477 kts 17°
2026-05-06 10:50 8.28261 38.67767 30418 ft 477 kts 17°
2026-05-06 10:50 8.31441 38.68745 30035 ft 471 kts 17°
2026-05-06 10:51 8.34584 38.69710 29099 ft 474 kts 17°
2026-05-06 10:51 8.37681 38.70662 28661 ft 464 kts 17°
2026-05-06 10:51 8.40763 38.71610 28300 ft 456 kts 17°
2026-05-06 10:51 8.43809 38.72549 27473 ft 458 kts 17°
2026-05-06 10:52 8.46816 38.73475 26945 ft 452 kts 17°
2026-05-06 10:52 8.49814 38.74398 26582 ft 445 kts 17°
2026-05-06 10:52 8.52788 38.75315 25891 ft 446 kts 17°
2026-05-06 10:52 8.55734 38.76223 25346 ft 443 kts 17°
2026-05-06 10:53 8.58676 38.77131 24872 ft 440 kts 17°
2026-05-06 10:53 8.61599 38.78034 24288 ft 439 kts 17°
2026-05-06 10:53 8.64507 38.78930 23824 ft 436 kts 17°
2026-05-06 10:53 8.67406 38.79825 23274 ft 434 kts 18°
2026-05-06 10:54 8.70284 38.80713 22738 ft 430 kts 18°
2026-05-06 10:54 8.73100 38.81582 22208 ft 418 kts 18°
2026-05-06 10:54 8.75842 38.82429 21747 ft 405 kts 18°
2026-05-06 10:54 8.78502 38.83250 21285 ft 395 kts 18°
2026-05-06 10:55 8.81100 38.84052 20837 ft 385 kts 18°
2026-05-06 10:55 8.83634 38.84834 20403 ft 377 kts 18°
2026-05-06 10:55 8.86112 38.85600 19987 ft 369 kts 18°
2026-05-06 10:55 8.88509 38.86445 19535 ft 363 kts 29°
2026-05-06 10:56 8.90491 38.88016 19160 ft 368 kts 49°
2026-05-06 10:56 8.91952 38.90204 18398 ft 385 kts 68°
2026-05-06 10:56 8.92740 38.92724 17942 ft 370 kts 73°
2026-05-06 10:56 8.93371 38.95250 17435 ft 359 kts 81°
2026-05-06 10:57 8.93416 38.97749 16915 ft 351 kts 92°
2026-05-06 10:57 8.93311 39.00148 16453 ft 344 kts 90°
2026-05-06 10:57 8.93247 39.02546 15956 ft 339 kts 90°
2026-05-06 10:57 8.93205 39.04927 15491 ft 340 kts 89°
2026-05-06 10:58 8.93171 39.07372 15376 ft 341 kts 89°
2026-05-06 10:58 8.93139 39.09626 15707 ft 309 kts 89°
2026-05-06 10:58 8.93109 39.11704 15628 ft 285 kts 89°
2026-05-06 10:58 8.93081 39.13645 15505 ft 261 kts 89°
2026-05-06 10:59 8.93056 39.15408 15356 ft 241 kts 88°
2026-05-06 10:59 8.93033 39.17033 15261 ft 222 kts 88°
2026-05-06 10:59 8.93014 39.18516 15084 ft 206 kts 86°
2026-05-06 10:59 8.93359 39.19893 14684 ft 200 kts 57°
2026-05-06 11:00 8.94331 39.20852 14331 ft 197 kts 32°
2026-05-06 11:00 8.95583 39.21311 14273 ft 192 kts 10°
2026-05-06 11:00 8.96974 39.21314 14303 ft 208 kts
2026-05-06 11:00 8.98439 39.21343 14246 ft 210 kts
2026-05-06 11:01 8.99907 39.21375 14047 ft 209 kts
2026-05-06 11:01 9.01335 39.21399 13981 ft 204 kts
2026-05-06 11:01 9.02778 39.21315 13816 ft 214 kts 347°
2026-05-06 11:01 9.03940 39.20373 13689 ft 223 kts 304°
2026-05-06 11:02 9.04418 39.18871 13686 ft 230 kts 287°
2026-05-06 11:02 9.04812 39.17267 13508 ft 239 kts 289°
2026-05-06 11:02 9.05232 39.15649 13239 ft 236 kts 289°
2026-05-06 11:02 9.05642 39.14066 13056 ft 231 kts 289°
2026-05-06 11:03 9.06046 39.12503 12842 ft 229 kts 288°
2026-05-06 11:03 9.06398 39.10931 12605 ft 231 kts 276°
2026-05-06 11:03 9.06150 39.09330 12432 ft 229 kts 252°
2026-05-06 11:03 9.05693 39.07792 12404 ft 228 kts 256°
2026-05-06 11:04 9.05286 39.06203 12135 ft 239 kts 255°
2026-05-06 11:04 9.04833 39.04587 11899 ft 238 kts 254°
2026-05-06 11:04 9.04377 39.02988 11642 ft 232 kts 253°
2026-05-06 11:04 9.03931 39.01428 11352 ft 229 kts 254°
2026-05-06 11:05 9.03498 38.99904 11075 ft 223 kts 254°
2026-05-06 11:05 9.03052 38.98404 10862 ft 223 kts 251°
2026-05-06 11:05 9.02576 38.96893 10621 ft 226 kts 253°
2026-05-06 11:05 9.02155 38.95356 10322 ft 233 kts 254°
2026-05-06 11:06 9.01717 38.93802 10109 ft 220 kts 252°
2026-05-06 11:06 9.01288 38.92350 9784 ft 209 kts 252°
2026-05-06 11:06 9.00906 38.91001 9602 ft 191 kts 253°
2026-05-06 11:06 9.00528 38.89711 9370 ft 192 kts 252°
2026-05-06 11:07 9.00149 38.88410 9123 ft 192 kts 253°
2026-05-06 11:07 8.99751 38.87131 8943 ft 190 kts 251°
2026-05-06 11:07 8.99414 38.85840 8730 ft 190 kts 255°
2026-05-06 11:07 8.99061 38.84557 8456 ft 189 kts 250°
2026-05-06 11:08 8.98667 38.83301 8173 ft 188 kts 253°
2026-05-06 11:08 8.98308 38.82016 7732 ft 187 kts 253°
2026-05-06 11:08 8.97955 38.80832 7609 ft 161 kts 253°
2026-05-06 11:08 8.97747 38.80112 7614 ft 20 kts 253°
2026-05-06 11:09 8.97775 38.80010 7615 ft 15 kts 331°
2026-05-06 11:09 8.97811 38.79990 7616 ft 0 kts 332°